Regional Weather Roundup
Issued by NWS Albany, NY

Home | Current Version | Previous Version | Text Only | Print | Product List | Glossary On
Versions: 1 2 3 4 5 6 7 8 9 10 11 12 13 14 15 16 17 18 19 20 21 22 23 24 25 26 27 28 29 30 31 32 33 34 35 36 37 38 39 40 41 42 43 44 45 46 47 48 49 50
000
ASUS41 KALY 060710
RWRALY

NEW YORK STATE HOURLY WEATHER ROUNDUP
NATIONAL WEATHER SERVICE ALBANY NY
300 AM EDT WED MAY 06 2015

NOTE: "FAIR" INDICATES FEW OR NO CLOUDS BELOW 12,000 FEET WITH NO
SIGNIFICANT WEATHER AND/OR NO OBSTRUCTIONS TO VISIBILITY.

NYZ032-033-038>043-046>054-057>066-NYZ062>081-060800-
EAST


CITY           SKY/WX    TMP DP  RH WIND       PRES   REMARKS
ALBANY         MOCLDY    59  37  44 N3        30.26S
GLENS FALLS    PTCLDY    45  41  86 CALM      30.27S
POUGHKEEPSIE   CLOUDY    60  49  66 CALM      30.22S
NEWBURGH       CLOUDY    64  41  42 E12       30.23S
MONTGOMERY     CLOUDY    60  50  69 CALM      30.22S
WHITE PLAINS   CLOUDY    67  36  31 N9        30.19S
ISLIP          CLOUDY    61  53  75 NE3       30.17R
NEW YORK CITY  CLOUDY    69  44  40 N3        30.19S
CENTRAL PARK   CLOUDY    70  42  36 VRB6      30.22S
$$

NYZ005>009-017-018-044>046-055-056-060800-
CENTRAL


CITY           SKY/WX    TMP DP  RH WIND       PRES   REMARKS
FULTON         MOCLDY    46  39  76 CALM      30.29S
SYRACUSE       CLOUDY    54  42  64 CALM      30.28S
ROME           CLOUDY    49  42  77 NE5       30.30S
ELMIRA         LGT RAIN  52  51  97 W3        30.28S
BINGHAMTON     LGT RAIN  53  48  83 NE3       30.27F
MONTICELLO     CLOUDY    59  45  58 N7        30.27S
$$

NYZ026>034-041>043-060800-
NORTH


CITY           SKY/WX    TMP DP  RH WIND       PRES   REMARKS
WATERTOWN      CLEAR     39  37  92 E5        30.28F
FORT DRUM      NOT AVBL
MASSENA        CLEAR     42  37  82 CALM      30.29S
SARANAC LAKE   CLEAR     30  28  92 CALM      30.28S
PLATTSBURGH    CLEAR     52  35  52 W3        30.26S
$$

NYZ001>004-010>016-019>021-060800-
WEST


CITY           SKY/WX    TMP DP  RH WIND       PRES   REMARKS
NIAGARA FALLS  CLOUDY    53  46  77 CALM      30.27S
BUFFALO        CLOUDY    56  52  86 NE6       30.27S
DUNKIRK        FOG       51  50  96 N7        30.26S VSB 1
JAMESTOWN      CLOUDY    54  52  94 E5        30.26F
WELLSVILLE     CLOUDY    54  52  93 SE6       30.28F FOG
ROCHESTER      CLOUDY    57  43  59 N5        30.28F
PENN YAN       CLOUDY    55  54  96 SW3       30.28F FOG
$$

             KEY
       WCI = WIND CHILL INDEX
       VSB = VISIBILITY
       HX  = HEAT INDEX
$$



USA.gov is the U.S. government's official web portal to all federal, state and local government web resources and services.